Location: Pinhead Observatory
(34.4473°N, 118.1985°W)
Time: 02:58:56
(UTC-07:00)

Daily predictions for brighter satellites

Satellite Brightness Start Highest point End
(mag) Time Altitude Azimuth Time Altitude Azimuth Time Altitude Azimuth
ATLAS 3B R/B 4.2 01:43:21 33° N 01:43:21 33° N 01:47:29 10° NNE
CZ-4C R/B 4.4 02:19:03 21° NNE 02:19:03 21° NNE 02:21:01 10° NNE
USA 234 4.3 02:31:20 10° NE 02:35:17 37° ENE 02:35:17 37° ENE
SL-16 R/B 4.3 02:37:14 24° E 02:38:23 26° ENE 02:43:19 10° NNE
SL-16 R/B 4.5 02:42:52 17° NNW 02:42:52 17° NNW 02:44:29 10° N
Resurs 1-4 Rocket 4.4 02:37:26 10° NE 02:39:46 19° ENE 02:39:46 19° ENE
Centaur D-1A AC-31 3.6 01:43:08 10° WSW 02:58:22 57° SSE 03:04:05 10° E
CENTAUR R/B 4.0 03:06:29 26° ESE 03:06:29 26° ESE 03:11:23 10° NE
NOSS 3-2 (C) 4.3 03:08:25 46° N 03:08:25 46° N 03:13:03 10° NNE
ATLAS 5 CENTAUR R/B 3.6 03:15:02 28° ENE 03:15:02 28° ENE 03:17:43 10° NE
Okean O Rocket 3.5 03:37:32 10° NE 03:41:12 25° E 03:41:36 24° ESE
Cosmos 839 Rocket 4.1 03:36:33 10° NNW 03:44:26 89° WSW 03:46:11 54° SSE
Meteor 2-3 Rocket 4.3 03:40:21 10° NNW 03:44:28 48° NNW 03:44:28 48° NNW
Cosmos 1302 Rocket 4.5 03:42:02 10° N 03:47:12 57° ENE 03:47:54 52° ESE
CZ-2D R/B 2.5 03:42:24 10° N 03:46:36 57° N 03:46:36 57° N
Atlas Centaur 2 4.1 03:50:12 12° SE 03:50:12 12° SE 03:51:01 10° ESE
Cosmos 1943 4.0 03:53:04 39° NNW 03:53:04 39° NNW 03:57:19 10° N
Cosmos 2315 Rocket 3.8 03:52:37 83° W 03:52:41 83° W 03:58:59 10° N
COSMOS 2406 4.4 03:51:05 31° SE 03:52:44 38° ESE 03:58:00 10° NE
IRS-1D 4.3 03:47:49 10° N 03:51:38 45° NNW 03:51:38 45° NNW
MOS 1-B 4.3 03:47:11 10° NNE 03:52:59 79° ESE 03:53:21 75° SE
Cosmos 1455 4.0 04:01:16 28° N 04:01:16 28° N 04:03:10 10° N
ARIANE 5 R/B 3.5 03:57:25 10° N 04:01:04 37° NW 04:01:04 37° NW
Cosmos 2369 Rocket 2.8 04:00:58 10° NNW 04:04:44 42° NW 04:04:44 42° NW
SeaSat 1 3.6 04:01:55 10° SE 04:06:32 42° ENE 04:11:11 10° N
Meteor 2-11 Rocket 4.3 04:09:41 65° WSW 04:10:14 69° W 04:16:19 10° N
CZ-4B R/B 3.9 04:07:10 10° NNE 04:12:15 46° E 04:15:06 24° SSE
PSLV R/B 4.4 04:08:37 10° NNE 04:11:56 52° ENE 04:11:56 52° ENE
Cosmos 1862 Rocket 3.8 04:18:09 59° NNW 04:18:09 59° NNW 04:21:50 10° N
CZ-3A R/B 4.4 04:13:24 32° W 04:19:27 61° NNW 05:53:35 10° ENE
USA 234 4.1 04:14:38 10° NNE 04:20:31 37° NW 04:22:38 30° WNW
CZ-2C R/B 4.4 04:16:25 10° SSE 04:20:44 52° ENE 04:25:02 10° N
Resurs 1-4 Rocket 2.8 04:16:34 10° N 04:20:50 36° WNW 04:20:50 36° WNW
SL-16 R/B 2.9 04:22:20 42° W 04:22:20 42° W 04:27:33 10° NNW
Cosmos 1943 Rocket 2.2 04:23:25 10° NNW 04:29:07 79° ENE 04:34:44 10° SSE
Cosmos 1408 3.8 04:27:43 10° N 04:31:18 43° E 04:34:53 10° SSE
SL-27 R/B 2.9 04:34:22 54° NNW 04:34:22 54° NNW 04:37:26 10° N
ADEOS II 3.7 04:31:00 10° NE 04:35:42 32° E 04:40:21 10° SSE
Cosmos 1825 2.7 04:35:45 10° N 04:39:29 58° E 04:43:13 10° SSE
Nadezhda 1 Rocket 4.1 04:34:11 13° S 04:39:47 79° E 04:46:08 10° N
Cosmos 2263 4.4 04:35:18 10° NW 04:40:48 46° WSW 04:44:14 22° SSW
USA 32 4.2 04:38:03 12° S 04:42:48 73° E 04:48:02 10° N
MOZ.5/SAFIR/RUBIN 5/SL-8 3.6 04:39:52 15° S 04:43:45 77° WSW 04:48:24 10° NNW
PAYLOAD B 4.1 04:39:47 10° N 04:45:20 79° WNW 04:48:43 24° SSW
CZ-3 R/B 4.1 03:54:56 10° W 04:45:28 56° SSW 04:56:10 10° SE
Cosmos 1733 Rocket 3.8 04:42:52 10° NNW 04:46:14 34° WNW 04:46:14 34° WNW
Aureole 3 Rocket 4.2 04:40:14 10° S 04:47:55 76° E 04:53:22 10° N
ARGOS Delta rocket 4.3 04:50:05 10° N 04:54:04 34° WNW 04:54:33 33° W
Cosmos 1862 3.1 04:50:37 10° N 04:54:35 77° W 04:58:23 11° S
IRS-1C Rocket 4.4 04:49:48 10° N 04:54:52 49° WNW 04:57:13 29° SW
Cosmos 1782 Rocket 4.1 04:51:00 10° N 04:55:18 60° E 04:59:34 10° SSE
ADEOS Rocket 3.9 04:47:48 10° NNE 04:55:34 69° ESE 05:03:11 10° S
CENTAUR R/B 3.0 04:53:42 29° WSW 04:56:21 44° NW 05:02:47 10° NNE
ATLAS 5 CENTAUR R/B 3.4 04:56:36 19° WNW 04:57:51 21° NW 05:01:42 10° N
OAO 3 Copernicus 4.3 04:55:56 30° W 04:58:17 63° SSW 05:03:16 10° ESE
BREEZE-M DEB (TANK) 4.4 04:56:28 29° WSW 04:59:27 78° NW 05:19:06 10° NE
Cosmos 1656 Rocket 4.0 04:54:49 10° NNW 05:00:13 65° ENE 05:05:34 10° SSE
Meteor 1-26 Rocket 4.3 05:02:19 10° S 05:08:08 89° E 05:14:02 10° N
Cosmos 2074 Rocket 4.1 05:02:14 10° NNW 05:08:14 52° W 05:14:14 10° SSW
Cosmos 1933 4.0 05:07:23 29° WSW 05:08:32 35° W 05:12:18 10° NNW
CZ-4B R/B 3.3 05:07:05 10° N 05:10:30 37° WNW 05:11:52 27° WSW
Cosmos 2154 Rocket 4.2 05:04:48 10° N 05:11:10 77° E 05:17:30 10° S
Cosmos 2184 Rocket 4.2 05:06:19 10° NNW 05:12:26 51° W 05:18:31 10° SSW
Feng Yun 1-1 Rocket 4.4 05:07:30 10° NNE 05:12:54 75° ESE 05:18:20 10° S
Cosmos 1908 Rocket 3.9 05:11:42 10° NNW 05:15:47 40° W 05:19:50 10° SSW
Cosmos 2221 Rocket 3.9 05:13:05 18° SSW 05:16:09 46° W 05:20:25 10° N
Okean O Rocket 2.8 05:13:50 10° NNW 05:17:27 25° WNW 05:19:03 20° WSW
Okean-O 2.6 05:18:36 10° N 05:23:02 72° WNW 05:27:26 10° SSW
Cosmos 407 Rocket 3.5 05:20:50 10° SSW 05:25:58 65° WNW 05:31:12 10° N
Cosmos 2341 Rocket 4.1 05:26:14 10° N 05:32:33 88° E 05:38:54 10° S
Cosmos 1782 4.2 05:28:48 10° SSE 05:32:36 43° E 05:36:26 10° NNE
Atlas Centaur 2 2.5 05:32:52 14° SW 05:36:33 42° SSE 05:41:54 10° E
COSMOS 2406 4.3 05:33:12 14° WSW 05:37:06 26° WNW 05:41:53 10° N
Meteor PRIRODA 3.8 05:35:41 10° N 05:39:22 53° WNW 05:43:02 10° SSW
Cosmos 2285 Rocket 4.4 05:37:30 10° NNW 05:43:23 40° W 05:49:14 10° SSW
SeaSat 1 3.6 05:40:32 10° SSW 05:44:09 21° WSW 05:47:48 10° WNW
Cosmos 2151 Rocket 3.7 05:42:22 10° N 05:46:47 81° E 05:51:10 10° S
COSMOS 2487 3.5 05:43:59 10° SW 05:47:10 29° WNW 05:50:23 10° N
Cosmos 1140 Rocket 3.7 05:43:00 10° S 05:48:05 73° ESE 05:53:12 10° NNE
USA 116 4.4 05:45:57 10° S 05:50:26 50° W 05:55:24 10° NNW
Cosmos 1606 4.1 05:49:11 10° SSE 05:52:55 45° E 05:56:41 10° NNE
GPS 2-05 Rocket1 2.7 05:49:43 10° WSW 05:53:04 81° SSE 05:56:19 10° E
Ariane Rocket 3.3 05:55:53 10° NNE 06:00:59 75° ESE 06:06:03 10° S
